RH
36 36 35 35 34 33 33 33 34 31 27 25 25 24 24 24 23 22 22 21 21 21 22 22 23 23 22 21 20 20 20 20 21 21 23 25 27 28 27 27 29 36
39 38 37 36 36 36 37 37 38 36 31 27 26 26 26 26 26 25 24 23 23 23 23 23 25 26 26 25 24 23 22 21 21 21 21 23 25 27 30 30 29 29
43 42 41 40 39 40 42 43 44 42 37 31 29 29 30 30 31 31 31 30 29 28 28 27 27 29 30 30 29 28 27 25 24 22 22 21 22 24 27 30 32 32
47 47 46 46 46 47 48 50 50 48 44 38 35 34 35 36 37 38 39 38 36 35 35 33 32 32 33 34 34 34 32 30 28 26 24 23 22 22 23 26 30 34
50 50 51 51 51 52 54 56 56 54 49 44 41 40 39 41 43 44 44 44 42 40 39 37 36 35 37 37 38 39 37 35 32 29 28 25 24 23 22 23 26 30
55 55 55 56 56 56 58 60 60 58 52 49 47 45 45 46 48 49 49 49 47 44 42 40 39 37 38 39 40 41 41 38 36 34 32 28 26 25 24 24 25 27
62 64 62 62 63 62 63 65 65 62 58 56 52 50 51 52 54 55 55 55 53 50 46 44 43 42 41 41 41 41 42 41 39 37 35 32 29 27 26 27 28 28
65 69 70 71 72 70 69 70 70 68 66 63 58 56 57 59 60 61 60 60 58 55 52 49 48 47 46 45 44 43 42 41 39 37 35 33 31 29 29 30 30 30
68 73 76 79 79 77 75 74 74 72 71 68 64 62 64 65 65 65 64 64 61 58 56 54 52 52 51 49 48 46 44 41 39 36 34 31 30 31 32 33 33 34
73 78 81 82 81 79 78 77 75 74 74 73 71 71 71 71 71 69 67 64 63 62 62 59 57 56 55 54 52 49 46 43 40 36 33 31 29 30 32 35 38 40
75 80 82 83 82 80 79 79 78 78 78 78 77 77 77 78 77 74 70 67 65 65 64 63 61 60 60 59 56 52 48 44 40 36 34 32 31 31 32 35 41 44
76 80 82 83 83 83 83 82 83 83 83 83 82 82 82 82 81 77 74 72 71 69 67 66 64 62 62 61 58 55 51 46 41 38 36 35 35 34 34 36 41 43
74 77 79 81 82 84 85 86 86 87 86 86 85 85 85 84 83 81 79 77 76 74 72 70 67 64 63 62 60 57 53 49 45 42 39 38 37 36 38 41 43 42
69 71 75 78 80 81 82 84 85 85 86 86 87 87 88 88 87 85 85 84 82 81 78 75 71 68 68 66 63 60 56 51 47 43 40 40 39 39 40 42 42 42
68 69 71 75 78 79 79 80 81 84 86 87 89 91 91 91 91 90 90 90 88 86 83 79 76 74 73 70 68 65 61 55 49 43 40 40 41 41 42 42 41 42
73 73 74 76 77 77 78 80 82 85 87 89 92 93 94 94 93 93 93 92 89 86 83 81 79 78 76 74 72 68 64 58 52 47 45 45 46 46 45 44 43 43
78 78 77 77 77 79 80 83 86 87 87 88 91 92 92 93 93 92 91 89 88 86 84 83 82 79 77 74 71 68 64 59 55 53 53 53 51 51 49 47 46 46
81 80 79 77 77 80 84 86 87 87 86 86 86 87 88 89 90 90 89 89 88 87 86 85 82 79 76 73 70 68 64 61 59 59 59 58 57 56 55 53 51 51
83 81 80 78 77 79 83 85 85 84 83 81 80 81 82 84 86 88 89 88 88 88 88 86 83 80 77 74 71 69 67 67 67 65 62 60 59 58 57 56 55 56
83 82 80 79 77 76 77 79 80 80 79 78 78 77 77 78 80 84 86 86 87 88 87 85 84 82 78 75 73 72 72 73 71 68 65 62 59 57 57 57 59 63
83 82 80 79 77 76 75 75 76 78 79 78 78 78 78 78 79 82 84 87 89 89 87 86 86 84 81 79 78 78 78 77 73 70 67 64 61 59 59 61 65 69
85 82 80 79 77 76 77 77 79 82 82 80 78 79 80 82 83 85 87 88 90 90 88 87 87 86 85 83 82 84 84 80 76 73 70 68 67 67 68 70 73 74
84 82 80 79 78 78 79 82 85 86 84 81 79 79 82 84 86 88 89 90 90 90 89 88 88 88 87 84 84 87 87 82 78 77 75 75 76 76 76 76 76 77
84 83 80 79 79 81 83 86 88 87 84 82 80 79 81 85 87 89 91 91 90 90 89 87 86 86 84 83 84 87 86 83 82 83 83 84 85 83 80 79 78 78
84 82 79 78 81 84 85 86 86 85 85 84 83 82 83 85 88 90 91 92 91 89 88 87 87 87 88 88 90 91 90 90 91 93 93 93 93 91 86 84 82 81
83 81 78 79 82 83 83 84 83 83 85 86 88 89 88 88 89 89 90 91 91 91 92 92 94 96 97 97 98 98 98 98 98 99 99 98 97 95 92 90 89 89